www.pogodaiklimat.ru

Погода и климат >> Архив погоды >> Индия >> Раджастхан >> Аэропорт Махараны Пратапа


ПОГОДА в Аэропорту Махараны Пратапа

  • Прогноз погоды в Аэропорту Махараны Пратапа
  • Монитор погоды в Аэропорту Махараны Пратапа

АРХИВ ПОГОДЫ в Аэропорту Махараны Пратапа

Время (UTC), дата Ветер
(напр.,м/с)
 
Видим.   Явления Облачность Т
(С)
Тd
(С)
f
(%)
Тe
(С)
Тes
(С)
Комфортность P
(гПа)
Po
(гПа)
Тmin
(С)
Tmax
(С)
R
(мм)
R24
(мм)
S
(см)
03 10.09 Ю 2 2000 м мгла 4/0
[Ac trans]
+26.6 +25.5 94 +39 +43 очень
душно
1001.6 945.2 +24.2 +29.4 40
06 10.09 Ю 1 2000 м мгла 6/6 900 м
[Cu Sc]
+30.4 +26.6 80 +47 +55 опасность
перегрева
1000.9 945.3
12 10.09 ЮЗ 3 2000 м слаб. морось {гроза} 10/6 450 м
[Frnb As op]
+26.2 +24.8 92 +37 +37 очень
душно
1000.2 943.9 +32.7 7
18 10.09 Ю 2 1000 м дымка {гроза, дождь} 10/8 450 м
[Frnb As op]
+26.0 +26.0 100 +39 +39 очень
душно
1003.0 946.4 11
21 10.09 штиль 0 2000 м дымка 10/8 450 м
[Frnb As op]
+25.6 +25.6 100 +37 +37 очень
душно
1002.6 946.0 11
00 11.09 штиль 0 2000 м дымка 5/5 450 м
[Frnb]
+25.2 +24.6 96 +35 +35 очень
душно
1002.2 945.6 11
03 11.09 штиль 0 2000 м мгла {туман} 8/4 750 м
[Sc Ac trans]
+27.0 +25.6 92 +40 +42 очень
душно
1004.0 947.5 +25.0 +32.7 11
06 11.09 штиль 0 4000 м мгла 6/4 750 м
[Sc diur, vesp Ac trans]
+30.2 +25.5 76 +44 +56 опасность
перегрева
1003.5 947.8
12 11.09 Ю 2 2000 м мгла {гроза, дождь} 8/5 750 м
[Cu Sc As trans]
+26.0 +23.7 87 +35 +36 очень
душно
1002.3 945.9 +33.4 11
15 11.09 0 н/о
18 11.09 штиль 0 4000 м мгла 5/3 900 м
[Sc Ac trans]
+25.8 +24.7 94 +37 +37 очень
душно
1004.8 948.1 11
00 12.09 штиль 0 2000 м дымка 8/4 900 м
[Sc Ac trans]
+25.2 +23.8 92 +34 +34 очень
душно
1003.4 946.6 11
03 12.09 Ю 3 1000 м мгла 10/6 750 м
[Sc As op]
+25.6 +24.5 94 +36 +36 очень
душно
1005.5 948.8 +25.1 +33.7 11
06 12.09 Ю 2 2000 м мгла 10/5 750 м
[Sc As op]
+28.0 +25.2 85 +41 +43 опасность
перегрева
1005.8 949.4
12 12.09 ЮЗ 3 2000 м мгла 9/4 750 м
[Sc As trans]
+30.2 +25.5 76 +44 +45 опасность
перегрева
1001.3 945.7 +30.6
18 12.09 штиль 0 2000 м мгла 6/4 750 м
[Sc Ac trans]
+27.0 +24.8 88 +39 +39 очень
душно
1005.6 949.0
00 13.09 штиль 0 1000 м мгла {дождь} 8/4 750 м
[Sc As trans]
+25.4 +24.3 94 +35 +35 очень
душно
1003.2 946.6 4
03 13.09 штиль 0 500 м туман {дождь} 10/5 600 м
[Sc As op]
+25.4 +24.8 96 +36 +36 очень
душно
1005.1 948.4 +25.3 +30.6 4
06 13.09 ЮВ 1 500 м слаб. морось 10/6 240 м
[Frnb As op]
+25.6 +25.0 96 +36 +38 очень
душно
1006.8 950.0 4
12 13.09 СЗ 3 2000 м мгла 8/5 750 м
[Sc As trans]
+27.8 +25.6 88 +41 +42 опасность
перегрева
1002.3 946.1 +28.2 4
18 13.09 З 1 2000 м мгла 10/6 750 м
[Sc As op]
+26.0 +25.2 95 +37 +37 очень
душно
1004.8 948.1 4
00 14.09 СЗ 2 2000 м мгла 10/6 450 м
[Frnb As op]
+26.0 +25.2 95 +37 +37 очень
душно
1003.4 946.7 4
03 14.09 штиль 0 1000 м дымка 10/8 450 м
[Frnb As op]
+26.0 +24.6 92 +37 +37 очень
душно
1005.1 948.4 +25.0 +28.2 4
06 14.09 СЗ 2 1000 м слаб. морось 10/8 450 м
[Frnb As op]
+26.8 +24.8 89 +38 +39 очень
душно
1005.7 949.2
12 14.09 С 2 2000 м мгла 10/6 750 м
[Sc As op]
+25.8 +25.0 95 +37 +37 очень
душно
1002.9 946.3 +27.4
18 14.09 штиль 0 2000 м слаб. морось 10/5 450 м
[Frnb As op]
+24.6 +23.7 95 +33 +33 очень
душно
1006.3 949.3 2
21 14.09 штиль 0 2000 м мгла 10/5 750 м
[Sc As op]
+24.4 +23.5 95 +33 +33 очень
душно
1005.3 948.4 2
00 15.09 Ю 1 2000 м дымка 10/8 450 м
[Frnb As op]
+24.4 +23.5 95 +33 +33 очень
душно
1004.0 948.1 2
03 15.09 штиль 0 2000 м дымка 10/5 750 м
[Sc As op]
+25.0 +23.9 94 +34 +35 очень
душно
1006.9 949.9 +24.2 +27.4 2
06 15.09 Ю 2 4000 м мгла 9/5 900 м
[Sc As op]
+27.8 +24.4 82 +39 +42 очень
душно
1006.1 949.7
12 15.09 З 2 4000 м мгла 9/5 900 м
[Sc Ac trans]
+30.4 +23.4 66 +41 +41 опасность
перегрева
1003.1 947.4 +31.6
18 15.09 штиль 0 4000 м мгла 5/3 900 м
[Sc Ac trans]
+26.0 +22.9 83 +35 +35 очень
душно
1005.5 948.8
21 15.09 штиль 0 4000 м мгла 5/3 900 м
[Sc Ac trans]
+25.6 +22.7 84 +34 +34 очень
душно
1003.8 947.2
00 16.09 штиль 0 2000 м мгла 8/4 900 м
[Sc Ac trans]
+25.4 +23.4 89 +34 +34 очень
душно
1004.4 947.8
03 16.09 штиль 0 4000 м мгла 6/4 900 м
[Sc Ac trans]
+28.4 +23.6 75 +39 +42 очень
душно
1004.9 948.8 +25.0 +31.6
06 16.09 СВ 1 4000 м мгла 6/4 900 м
[Sc Ac trans]
+30.8 +24.4 69 +43 +53 опасность
перегрева
1005.1 949.4
12 16.09 ЮЗ 2 4000 м 5/3 900 м
[Sc Ac trans]
+32.8 +25.6 66 +48 +49 опасность
перегрева
1001.1 945.9 +33.4
18 16.09 штиль 0 4000 м мгла 5/3 900 м
[Sc Ac trans]
+26.2 +23.1 83 +35 +35 очень
душно
1004.7 948.2
21 16.09 штиль 0 4000 м мгла 5/3 900 м
[Sc Ac trans]
+25.8 +22.9 84 +34 +34 очень
душно
1004.1 947.4
00 17.09 штиль 0 2000 м мгла 3/0
[Ac trans]
+24.4 +23.3 94 +33 +33 очень
душно
1004.2 947.3

 

Местоположение метеостанции Аэропорт Махараны Пратапа (Раджастхан, Индия): широта 24.62 долгота 73.88 высота над уровнем моря 514 м.

В архиве по умолчанию представлена погода в Аэропорту Махараны Пратапа за последнюю неделю. Архивные данные за месяц целиком и за предыдущие месяцы, начиная с января 2011 года, Вы можете получить, выбрав интересующий диапазон дат из раскрывающегося списка и нажав кнопку "Ввод!".


*Определитесь, кто Вы:
робот инопланетянин человек

Внимание! Время в таблицах - всемирное. Для получения местного времени необходимо прибавить поправку, которая равна 5.5 ч.

Смотрите также архив погоды в соседних городах и на ближайших метеорологических станциях:

Погода в Читторгархе (Раджастхан, Индия) (81 км)
Погода в Бхилваре (Раджастхан, Индия) (111 км)
Погода в Манут-Абу (Раджастхан, Индия) (117 км)
Погода в Дисе (Гуджарат, Индия) (176 км)
Погода в Ратламе (Мадхья-Прадеш, Индия) (187 км)
Погода в Гандинагаре (Гуджарат, Индия) (194 км)
Погода в Джодхпуре (Раджастхан, Индия) (206 км)
Погода в Коте (Раджастхан, Индия) (207 км)
Погода в Ахмедабаде (Гуджарат, Индия) (214 км)
Погода в Аджмере (Раджастхан, Индия) (217 км)

Пояснения к столбцам:

Ветер - указаны скорость ветра в м/с - средняя за 10 мин, порывы в срок и между сроками (в фигурных скобках) и направление, откуда дует ветер: С - северный, СВ - северо-восточный, В - восточный, ЮВ - юго-восточный, Ю - южный, ЮЗ - юго-западный, З - западный, СЗ - северо-западный.
Видимость - горизонтальная дальность видимости в метрах или километрах. При видимости от 1 до 10 км при отсутствии осадков обычно наблюдается дымка, при ухудшении видимости до 1 км и менее - туман. В сухую погоду видимость может ухудшаться дымом, пылью или мглою.
Явления - указаны атмосферные явления, наблюдавшиеся в срок или в последний час перед сроком; фигурными скобками обозначены явления, наблюдавшиеся между сроками (за 1-3 часа до срока); квадратными скобками обозначены град или гололедные отложения с указанием их диаметра в мм.
Облачность - указаны через наклонную черту общая и нижняя облачность в баллах и высота нижней границы облаков в метрах; квадратными скобками обозначены формы облаков: Ci - перистые, Cs - перисто-слоистые, Cc - перисто-кучевые, Ac - высококучевые, As - высокослоистые, Sc - слоисто-кучевые, Ns - слоисто-дождевые, Cu - кучевые, Cb - кучево-дождевые. Подробнее классификацию облаков см. в Атласе облаков (PDF).
T - Температура воздуха - температура, измеренная на высоте 2 м над землей.
Td - Температура точки росы - температура, при понижении до которой содержащийся в воздухе водяной пар достигнет насыщения.
f - Относительная влажность воздуха - влажноcть воздуха, измеренная на высоте 2 м над землей.
Te - Эффективная температура - температура, которую ощущает одетый по сезону человек в тени. Характеристика душности погоды. При расчете учитывается влияние влажности воздуха и скорости ветра на теплоощущения человека.
Tes - Эффективная температура на солнце - температура, которую ощущает человек, с поправкой на солнечный нагрев. Характеристика знойности погоды. Зависит от высоты солнца над горизонтом, облачности и скорости ветра. Ночью, в пасмурную погоду, а также при ветре 12 м/с и более поправка равна нулю.
P - Атмосферное давление - приведенное к уровню моря атмосферное давление.
Po - Атмосферное давление - измеренное на уровне метеостанции атмосферное давление.
Tmin - Минимальная температура - минимум температуры воздуха на высоте 2 м над землей.
Tmax - Максимальная температура - максимум температуры воздуха на высоте 2 м над землей.
R - Количество осадков - Количество выпавших осадков за период времени, мм. При наведении курсора мыши на число - период времени, за который выпало указанное количество осадков.
R24 - Количество осадков - Количество выпавших осадков за 24 часа, мм.
S - Снежный покров - Высота снежного покрова, см. При наведении курсора мыши на число - состояние снежного покрова и степень покрытия местности в баллах.